Voltar ao catálogo

USA 224

AtivoMilitarSSO
NORAD 37348·PAYLOAD·🇺🇸 United States

Lançado Jan 20, 2011 de Vandenberg Space Force Base

Loading…

Próximas Passagens (próximas 24 horas)

TLE

ObsoletoSource: Mike McCants

Época: Sep 18, 2024, 02:01 UTC

1 37348U 11002A   24262.08462643 0.00057000  00000-0  53026-3 0    02
2 37348  97.8772  37.0228 0503871 200.0756 159.9242 14.84682940    01

Acompanhe USA 224 em tempo real com AllMySat

Download on the App Store